Location: Bothwell
(42.3833°S, 147.0000°E)
Time: 10:13:06
(UTC+10:00)

UNISAT 6 - Pass Details

Date: 14 August 2024
Orbit: 589 x 662 km, 97.7° (Epoch: 14 September)

Event Time Altitude Azimuth Distance (km) Brightness Sun altitude
Rises 03:25:11 0° 145° (SE) 3,042 ? -40.9°
Reaches altitude 10° 03:28:58 10° 114° (ESE) 2,113 ? -40.2°
Maximum altitude 03:30:42 12° 92° (E) 1,977 ? -39.9°
Enters shadow 03:31:26 12° 82° (E) 1,997 ? -39.8°
